N2XGL-1 Weather Reports


Display with metric or nautical units.
time (UTC)temp
F
wind
direction
speed
MPH
gust
MPH
rain 1hr
in
rain 24hr
in
rain mn
in
humidity
%
barometer
mb
20260510050921 50 90 2.0 5.0 0.07 0.07 0.00 85 1014.8
20260510045948 50 90 2.0 5.0 0.07 0.07 0.00 84 1015.1
20260510045013 51 158 2.0 4.0 0.05 0.05 0.00 82 1015.2
20260510044414 51 180 1.0 4.0 0.04 0.04 0.00 81 1015.2
20260510044033 51 180 1.0 4.0 0.04 0.04 0.00 81 1015.2
20260510043141 52 158 2.0 7.0 0.02 0.02 0.00 78 1015.1
20260510042338 52 158 2.0 5.0 0.00 0.00 0.00 74 1015.1
20260510041353 52 225 1.0 3.0 0.00 0.00 0.00 68 1014.9
20260510040508 52 0 0.0 2.0 0.00 0.00 0.00 67 1014.6
20260510035949 52 0 0.0 2.0 0.00 0.00 0.00 67 1014.5
20260510035623 52 0 0.0 2.0 0.00 0.00 0.00 67 1014.5
20260510034633 52 338 2.0 5.0 0.00 0.00 0.00 67 1014.4
20260510033701 52 0 3.0 7.0 0.00 0.00 0.00 66 1013.8
20260510032823 52 22 4.0 10.0 0.00 0.00 0.00 66 1013.7
20260510031955 52 0 5.0 10.0 0.00 0.00 0.00 67 1013.6
20260510031001 52 22 6.0 13.0 0.00 0.00 0.00 67 1013.0
20260510030200 52 0 6.0 15.0 0.00 0.00 0.00 67 1012.8
20260510025352 52 0 3.0 10.0 0.00 0.00 0.00 68 1012.6
20260510024353 52 0 4.0 11.0 0.00 0.00 0.00 67 1012.3
20260510023403 52 0 9.0 16.0 0.00 0.00 0.00 67 1011.4
20260510022601 52 22 7.0 14.0 0.00 0.00 0.00 67 1011.4
20260510021603 53 0 4.0 10.0 0.00 0.00 0.00 66 1011.5
20260510020728 53 0 7.0 19.0 0.00 0.00 0.00 66 1010.6
20260510015821 53 22 14.0 24.0 0.00 0.00 0.00 65 1010.5
20260510015018 54 0 13.0 21.0 0.00 0.00 0.00 65 1009.8
20260510014451 54 0 13.0 24.0 0.00 0.00 0.00 65 1009.5
20260510014040 54 0 13.0 24.0 0.00 0.00 0.00 65 1009.5
20260510013208 55 0 14.0 33.0 0.00 0.00 0.00 66 1009.2
20260510012328 55 0 12.0 23.0 0.00 0.00 0.00 64 1008.4
20260510011528 55 0 13.0 23.0 0.00 0.00 0.00 64 1008.2
20260510010812 56 0 17.0 31.0 0.00 0.00 0.00 63 1007.7
20260510010613 56 0 17.0 31.0 0.00 0.00 0.00 63 1007.7
20260510005643 56 0 12.0 24.0 0.00 0.00 0.00 62 1007.3
20260510004823 57 0 15.0 31.0 0.00 0.00 0.00 61 1007.2
20260510003848 58 0 15.0 27.0 0.00 0.00 0.00 58 1006.7
20260510003447 59 0 16.0 33.0 0.00 0.00 0.00 57 1006.8
20260510003041 59 0 16.0 33.0 0.00 0.00 0.00 57 1006.8
20260510002233 61 0 13.0 26.0 0.00 0.00 0.00 53 1006.4
20260510001358 65 22 15.0 31.0 0.00 0.00 0.00 46 1006.0
20260510000523 70 0 13.0 29.0 0.00 0.00 0.00 39 1005.5
20260509235533 73 22 5.0 15.0 0.00 0.00 0.00 30 1004.3
20260509234628 73 22 3.0 7.0 0.00 0.00 0.00 28 1003.7
20260509233753 74 22 5.0 11.0 0.00 0.00 0.00 29 1003.5
20260509232848 74 45 5.0 10.0 0.00 0.00 0.00 29 1003.4
20260509232449 74 22 6.0 12.0 0.00 0.00 0.00 28 1003.3
20260509232041 74 22 6.0 12.0 0.00 0.00 0.00 28 1003.3
20260509231449 74 45 7.0 14.0 0.00 0.00 0.00 25 1003.1
20260509231241 74 45 7.0 14.0 0.00 0.00 0.00 25 1003.1
20260509230408 74 45 4.0 8.0 0.00 0.00 0.00 25 1003.0
20260509225421 74 45 4.0 10.0 0.00 0.00 0.00 25 1003.0
20260509224613 75 22 4.0 13.0 0.00 0.00 0.00 24 1003.0
20260509223741 76 45 4.0 7.0 0.00 0.00 0.00 25 1002.8
20260509222838 76 68 4.0 12.0 0.00 0.00 0.00 27 1002.8
20260509222019 75 135 4.0 10.0 0.00 0.00 0.00 28 1002.9
20260509221133 74 45 7.0 15.0 0.00 0.00 0.00 26 1002.9
20260509220452 74 45 6.0 12.0 0.00 0.00 0.00 25 1003.1
20260509220208 74 45 6.0 12.0 0.00 0.00 0.00 25 1003.1
20260509215450 75 0 5.0 10.0 0.00 0.00 0.00 28 1003.2
20260509215333 74 45 5.0 10.0 0.00 0.00 0.00 28 1003.2
20260509214528 75 0 5.0 10.0 0.00 0.00 0.00 28 1003.2
20260509213857 75 68 4.0 11.0 0.00 0.00 0.00 25 1003.1
20260509213558 75 68 4.0 11.0 0.00 0.00 0.00 25 1003.1
20260509212907 75 68 5.0 12.0 0.00 0.00 0.00 24 1003.4
20260509212558 75 68 5.0 12.0 0.00 0.00 0.00 24 1003.4
20260509212009 74 68 6.0 11.0 0.00 0.00 0.00 24 1003.4
20260509211603 75 22 6.0 13.0 0.00 0.00 0.00 26 1003.3
20260509210658 74 68 6.0 11.0 0.00 0.00 0.00 24 1003.4
20260509205841 74 45 6.0 12.0 0.00 0.00 0.00 24 1003.6
20260509204853 75 90 5.0 12.0 0.00 0.00 0.00 26 1003.7
20260509203533 76 112 6.0 12.0 0.00 0.00 0.00 28 1003.8
20260509203151 76 112 6.0 12.0 0.00 0.00 0.00 28 1003.8
20260509202447 76 22 4.0 10.0 0.00 0.00 0.00 25 1003.8
20260509202258 76 22 4.0 10.0 0.00 0.00 0.00 25 1003.8
20260509201433 75 112 3.0 7.0 0.00 0.00 0.00 24 1003.9
20260509200448 76 68 7.0 13.0 0.00 0.00 0.00 24 1004.0
20260509195603 76 90 4.0 10.0 0.00 0.00 0.00 23 1004.0
20260509194726 76 248 3.0 11.0 0.00 0.00 0.00 22 1004.1
20260509194647 76 248 3.0 11.0 0.00 0.00 0.00 22 1004.1
20260509192751 77 180 5.0 10.0 0.00 0.00 0.00 26 1004.1
20260509191013 75 68 3.0 9.0 0.00 0.00 0.00 24 1004.3
20260509190059 75 90 5.0 10.0 0.00 0.00 0.00 25 1004.5
20260509185141 76 45 5.0 10.0 0.00 0.00 0.00 28 1004.4
20260509184445 76 135 4.0 11.0 0.00 0.00 0.00 24 1004.5
20260509184343 76 135 4.0 11.0 0.00 0.00 0.00 24 1004.5
20260509183858 76 180 3.0 6.0 0.00 0.00 0.00 31 1004.6
20260509183525 76 180 3.0 6.0 0.00 0.00 0.00 31 1004.6
20260509182949 75 68 4.0 11.0 0.00 0.00 0.00 24 1004.5
20260509182603 75 68 4.0 11.0 0.00 0.00 0.00 24 1004.5
20260509181730 75 45 6.0 14.0 0.00 0.00 0.00 26 1004.6
20260509181618 75 45 6.0 14.0 0.00 0.00 0.00 26 1004.6
20260509180711 75 112 6.0 15.0 0.00 0.00 0.00 29 1004.7
20260509175821 75 45 5.0 14.0 0.00 0.00 0.00 27 1004.7
20260509174843 75 45 6.0 16.0 0.00 0.00 0.00 31 1004.8
20260509174038 75 68 6.0 15.0 0.00 0.00 0.00 28 1004.9
20260509173221 75 45 7.0 13.0 0.00 0.00 0.00 29 1004.8
20260509172333 76 68 5.0 14.0 0.00 0.00 0.00 28 1004.8
20260509170508 76 135 3.0 7.0 0.00 0.00 0.00 26 1005.0
20260509165628 76 135 4.0 9.0 0.00 0.00 0.00 27 1004.9
20260509163053 74 112 4.0 9.0 0.00 0.00 0.00 25 1005.1
20260509162053 74 90 3.0 5.0 0.00 0.00 0.00 24 1005.1
20260509160439 73 45 2.0 4.0 0.00 0.00 0.00 31 1005.0
20260509160341 73 45 2.0 4.0 0.00 0.00 0.00 31 1005.0
20260509155411 73 112 3.0 6.0 0.00 0.00 0.00 29 1005.0
20260509153631 71 158 2.0 3.0 0.00 0.00 0.00 31 1005.0
20260509152805 70 158 2.0 4.0 0.00 0.00 0.00 33 1005.1
20260509152713 70 158 2.0 4.0 0.00 0.00 0.00 33 1005.1
20260509151838 68 180 2.0 4.0 0.00 0.00 0.00 37 1005.2
20260509150838 67 158 1.0 2.0 0.00 0.00 0.00 38 1005.3
20260509145908 65 135 2.0 3.0 0.00 0.00 0.00 43 1005.4
20260509144033 62 158 2.0 3.0 0.00 0.00 0.00 49 1005.5
20260509143213 61 180 1.0 2.0 0.00 0.00 0.00 56 1005.5
20260509142248 60 248 2.0 4.0 0.00 0.00 0.00 61 1005.7
20260509140541 58 0 0.0 1.0 0.00 0.00 0.00 59 1005.7
20260509135621 56 225 1.0 3.0 0.00 0.00 0.00 67 1005.7
20260509134723 54 0 0.0 2.0 0.00 0.00 0.00 73 1005.6
20260509133828 51 202 2.0 4.0 0.00 0.00 0.00 73 1005.7
20260509132141 50 90 2.0 3.0 0.00 0.00 0.00 77 1005.5
20260509131233 50 0 0.0 3.0 0.00 0.00 0.00 75 1005.4
20260509125421 48 292 1.0 3.0 0.00 0.00 0.00 74 1004.9
20260509124553 48 0 2.0 5.0 0.00 0.00 0.00 74 1004.8
20260509123707 47 0 2.0 3.0 0.00 0.00 0.00 79 1004.7
20260509122721 47 0 2.0 9.0 0.00 0.00 0.00 79 1004.7
20260509121813 47 202 1.0 2.0 0.00 0.00 0.00 79 1004.4
20260509120813 47 338 1.0 2.0 0.00 0.00 0.00 80 1004.3
20260509115958 47 45 1.0 2.0 0.00 0.00 0.00 81 1004.2
20260509115118 47 338 1.0 2.0 0.00 0.00 0.00 81 1004.3
20260509114232 46 158 2.0 5.0 0.00 0.00 0.00 81 1004.2
20260509113348 46 202 3.0 7.0 0.00 0.00 0.00 80 1004.2
20260509112358 46 315 1.0 3.0 0.00 0.00 0.00 80 1004.0
20260509111508 47 270 4.0 10.0 0.00 0.00 0.00 81 1004.2
20260509110653 47 45 2.0 3.0 0.00 0.00 0.00 81 1003.8
20260509105653 47 0 0.0 2.0 0.00 0.00 0.00 80 1004.2
20260509104813 47 68 1.0 3.0 0.00 0.00 0.00 79 1004.1
20260509104401 47 270 2.0 4.0 0.00 0.00 0.00 79 1004.0
20260509103941 47 270 2.0 4.0 0.00 0.00 0.00 79 1004.0
20260509103013 47 338 1.0 2.0 0.00 0.00 0.00 79 1003.8
20260509102403 48 338 1.0 2.0 0.00 0.00 0.00 79 1004.0
20260509102143 48 338 1.0 2.0 0.00 0.00 0.00 79 1004.0
20260509101248 48 270 1.0 3.0 0.00 0.00 0.00 79 1004.0
20260509100258 48 45 1.0 2.0 0.00 0.00 0.00 79 1004.0
20260509095428 49 112 3.0 6.0 0.00 0.00 0.00 79 1003.9
20260509094618 49 180 1.0 4.0 0.00 0.00 0.00 79 1004.0
20260509093859 49 180 1.0 4.0 0.00 0.00 0.00 78 1004.1
20260509093743 49 180 1.0 4.0 0.00 0.00 0.00 78 1004.1
20260509092923 49 270 2.0 4.0 0.00 0.00 0.00 77 1004.2
20260509092403 49 158 1.0 3.0 0.00 0.00 0.00 77 1004.1
20260509092103 49 158 1.0 3.0 0.00 0.00 0.00 77 1004.1
20260509091153 48 0 3.0 6.0 0.00 0.00 0.00 76 1003.9
20260509090258 49 22 2.0 4.0 0.00 0.00 0.00 75 1003.8
20260509085413 49 270 1.0 2.0 0.00 0.00 0.00 74 1003.9
20260509084438 49 0 0.0 1.0 0.00 0.00 0.00 74 1003.8
20260509083901 49 0 0.0 1.0 0.00 0.00 0.00 74 1003.8
20260509083528 49 0 0.0 1.0 0.00 0.00 0.00 74 1003.8
20260509082713 50 270 1.0 3.0 0.00 0.00 0.00 75 1003.9
20260509081738 50 292 1.0 2.0 0.00 0.00 0.00 75 1003.8
20260509080923 50 292 1.0 3.0 0.00 0.00 0.00 74 1003.9
20260509075953 50 0 0.0 1.0 0.00 0.00 0.00 73 1004.0
20260509075128 51 0 0.0 2.0 0.00 0.00 0.00 73 1004.0
20260509074153 51 0 0.0 2.0 0.00 0.00 0.00 73 1004.1
20260509073405 51 112 1.0 2.0 0.00 0.00 0.00 72 1004.2
20260509073321 51 112 1.0 2.0 0.00 0.00 0.00 72 1004.2
20260509072401 51 0 0.0 1.0 0.00 0.00 0.00 72 1004.4
20260509071836 52 270 1.0 3.0 0.00 0.00 0.00 71 1004.4
20260509071438 52 270 1.0 3.0 0.00 0.00 0.00 71 1004.4
20260509070438 52 0 0.0 1.0 0.00 0.00 0.00 72 1004.5
20260509065603 52 248 1.0 2.0 0.00 0.00 0.00 71 1004.7
20260509065402 53 0 0.0 1.0 0.00 0.00 0.00 69 1004.7
20260509064738 53 0 0.0 1.0 0.00 0.00 0.00 69 1004.7
20260509063021 54 270 1.0 3.0 0.00 0.00 0.00 68 1004.8
20260509062405 54 0 2.0 5.0 0.00 0.00 0.00 68 1004.8
20260509062153 54 0 2.0 5.0 0.00 0.00 0.00 68 1004.8
20260509061452 54 0 2.0 5.0 0.00 0.00 0.00 68 1004.8
20260509061208 54 0 2.0 5.0 0.00 0.00 0.00 68 1004.8
20260509060404 54 22 3.0 4.0 0.00 0.00 0.00 68 1005.0
20260509060228 54 22 3.0 4.0 0.00 0.00 0.00 68 1005.0
20260509055450 53 45 1.0 3.0 0.00 0.00 0.00 71 1005.3
20260509055408 53 0 3.0 5.0 0.00 0.00 0.00 70 1005.2
20260509054538 53 45 1.0 3.0 0.00 0.00 0.00 71 1005.3
20260509053723 53 45 1.0 2.0 0.00 0.00 0.00 70 1005.2
20260509052918 53 338 1.0 2.0 0.00 0.00 0.00 71 1005.4
20260509052403 53 338 1.0 2.0 0.00 0.00 0.00 71 1005.4
20260509052038 53 338 1.0 2.0 0.00 0.00 0.00 71 1005.4